Location: Brachbach
(49.1847°N, 9.7240°E)
Time: 22:03:30
(UTC+00:00)

Cosmos 2219 Rocket - Pass Details

Date: 15 August 2024
Orbit: 826 x 846 km, 71.0° (Epoch: 09 September)

Event Time Altitude Azimuth Distance (km) Brightness Sun altitude
Exits shadow 22:32:00 21° 86° (E) 1,816 3.8 -26.1°
Drops below altitude 10° 22:35:15 10° 53° (NE) 2,478 4.9 -26.2°
Sets 22:38:12 0° 38° (NE) 3,419 5.9 -26.3°
